Location: Clinton NY
(43.0598°N, 75.3602°W)
Time: 11:47:09
(UTC-05:00)

Iridium 11 - Visible Passes

Search period start: 18 December 2017 00:00
Search period end: 28 December 2017 00:00
Orbit: 776 x 779 km, 86.4° (Epoch: 17 December)

Date Brightness Start Highest point End Pass type
(mag) Time Alt. Az. Time Alt. Az. Time Alt. Az.
18 Dec 6.9 05:37:20 10° SSE 05:42:10 40° E 05:47:01 10° NNE visible
18 Dec 5.5 17:46:19 10° N 17:51:34 88° W 17:56:47 10° S visible
18 Dec 8.7 19:30:29 10° WNW 19:31:24 10° WNW 19:32:20 10° W visible
19 Dec 7.9 05:04:54 10° SE 05:08:53 23° E 05:12:53 10° NNE visible
19 Dec 5.9 06:44:20 10° SSW 06:49:17 43° W 06:54:16 10° N visible
19 Dec 5.7 17:12:54 10° N 17:18:00 51° E 17:23:04 10° SSE visible
19 Dec 8.1 18:54:38 10° NW 18:58:17 19° W 19:01:54 10° WSW visible
20 Dec 8.5 04:33:33 10° E 04:35:43 13° ENE 04:37:52 10° NE visible
20 Dec 5.5 06:10:28 10° S 06:15:40 79° W 06:20:56 10° N visible
20 Dec 7.2 18:20:21 10° NNW 18:25:02 34° W 18:29:41 10° SSW visible
21 Dec 6.1 05:37:06 10° SSE 05:42:11 58° E 05:47:19 10° N visible
21 Dec 6.1 17:46:29 10° N 17:51:39 62° W 17:56:47 10° SSW visible
22 Dec 7.3 05:04:16 10° SE 05:08:50 32° E 05:13:25 10° NNE visible
22 Dec 6.3 06:44:57 10° SW 06:49:30 30° W 06:54:07 10° NNW visible
22 Dec 5.5 17:12:55 10° N 17:18:09 74° E 17:23:21 10° S visible
22 Dec 8.5 18:55:41 10° NW 18:58:10 14° WNW 19:00:39 10° WSW visible
23 Dec 8.1 04:32:09 10° ESE 04:35:36 18° ENE 04:39:03 10° NE visible
23 Dec 5.6 06:10:44 10° SSW 06:15:49 55° W 06:20:58 10° N visible
23 Dec 7.8 18:20:51 10° NNW 18:24:59 24° W 18:29:07 10° SW visible
24 Dec 5.5 05:37:04 10° S 05:42:16 83° E 05:47:31 10° N visible
24 Dec 6.8 17:46:46 10° NNW 17:51:41 43° W 17:56:35 10° SSW visible
25 Dec 6.6 05:03:54 10° SSE 05:08:49 45° E 05:13:48 10° NNE visible
25 Dec 6.7 06:45:48 10° SW 06:49:47 22° WNW 06:53:47 10° NNW visible
25 Dec 5.7 17:13:01 10° N 17:18:16 79° W 17:23:28 10° S visible
26 Dec 7.6 04:31:18 10° SE 04:35:31 26° E 04:39:45 10° NNE visible
26 Dec 6.0 06:11:11 10° SSW 06:16:01 38° W 06:20:53 10° NNW visible
26 Dec 8.3 18:21:36 10° NW 18:24:55 17° WNW 18:28:13 10° WSW visible
27 Dec 8.3 03:59:38 10° ESE 04:02:20 14° ENE 04:05:02 10° NE visible
27 Dec 5.4 05:37:12 10° S 05:42:23 70° W 05:47:37 10° N visible
27 Dec 7.5 17:47:10 10° NNW 17:51:41 30° W 17:56:11 10° SW visible
